Location: Antioch
(38.0049°N, 121.8058°W)
Time: 03:52:45
(UTC+00:00)

Cosmos 1354 Rocket - Pass Details

Date: 17 May 2026
Orbit: 761 x 778 km, 74.0° (Epoch: 9 June)

Event Time Altitude Azimuth Distance (km) Brightness Sun altitude
Rises 05:45:38 0° 347° (NNW) 3,237 8.4 -24.1°
Reaches altitude 10° 05:48:06 10° 353° (N) 2,305 7.3 -24.4°
Maximum altitude 05:53:10 49° 68° (ENE) 977 4.4 -25.0°
Enters shadow 05:53:20 49° 74° (ENE) 979 4.3 -25.0°
